This demonstration page uses our WeatherBlox Daily Observations layout. Learn more.

40.92945, -100.16068

Hourly Observations for June 15, 2015

Temp ( °F °C ) Dew Point ( °F °C ) Humidity (%) Winds ( mph kmh ) Pressure ( in mb ) Visibility ( mi km ) Precip ( " mm )
12:15 am 00:15 Clear 66 18.8 63 17.2 90 90 Calm 29.94 1014 10 16.0934 N/A
12:35 am 00:35 Mostly Cloudy 66 18.7 63 17.2 91 91 Calm 29.94 1014 10 16.0934 N/A
12:55 am 00:55 Cloudy 66 19.1 64 17.9 93 93 N 12 19 29.97 1015 10 16.0934 N/A
1:15 am 01:15 Cloudy with Heavy Rain 65 18.2 61 16.3 89 89 NNW 12 19 29.97 1015 7 11.26538 0.02 0.508
1:35 am 01:35 Mostly Cloudy 64 18 62 16.5 91 91 ENE 3 6 29.97 1015 10 16.0934 0.03 0.762
1:55 am 01:55 Partly Cloudy with Drizzle 64 18 62 16.6 92 92 W 6 9 29.94 1014 10 16.0934 0.03 0.762
2:15 am 02:15 Partly Cloudy with Light Drizzle 64 17.9 62 16.7 93 93 SSW 6 9 29.94 1014 10 16.0934 N/A
2:35 am 02:35 Clear with Light Rain 64 17.8 62 16.7 93 93 SW 8 13 29.91 1013 10 16.0934 N/A
2:55 am 02:55 Clear 64 17.7 62 16.7 94 94 NW 7 11 29.94 1014 10 16.0934 N/A
3:15 am 03:15 Clear 64 17.5 62 16.6 95 95 E 5 7 29.94 1014 10 16.0934 N/A
3:35 am 03:35 Mostly Cloudy 63 17.4 62 16.5 94 94 Calm 29.97 1015 10 16.0934 N/A
3:55 am 03:55 Mostly Cloudy 64 17.5 62 16.6 95 95 W 5 7 29.97 1015 10 16.0934 0 0
4:15 am 04:15 Mostly Cloudy 64 17.6 62 16.8 95 95 NW 7 11 29.97 1015 10 16.0934 N/A
4:35 am 04:35 Mostly Cloudy with Light Rain 64 17.7 63 17 96 96 NW 7 11 29.94 1014 10 16.0934 N/A
4:55 am 04:55 Mostly Cloudy 64 18 63 17 94 94 NW 9 15 29.94 1014 10 16.0934 N/A
5:15 am 05:15 Partly Cloudy 64 17.8 62 16.9 95 95 NNW 8 13 29.94 1014 10 16.0934 N/A
5:35 am 05:35 Clear 64 17.8 62 16.8 94 94 NW 7 11 29.97 1015 10 16.0934 0.01 0.254
5:55 am 05:55 Clear 64 17.6 62 16.7 95 95 NNW 8 13 29.97 1015 10 16.0934 0.01 0.254
6:15 am 06:15 Sunny 64 17.9 62 16.9 94 94 N 9 15 29.97 1015 10 16.0934 N/A
6:35 am 06:35 Mostly Cloudy 65 18.2 63 17.1 93 93 NNW 7 11 29.97 1015 10 16.0934 N/A
6:55 am 06:55 Mostly Cloudy 65 18.3 63 17.2 93 93 NNW 8 13 29.97 1015 10 16.0934 0 0
7:15 am 07:15 Cloudy with Heavy Rain 65 18.1 63 17.1 94 94 NNE 10 17 29.97 1015 2.5 4.02335 0.16 4.064
7:35 am 07:35 Cloudy with Rain 64 18 63 17.1 95 95 NNE 9 15 29.97 1015 7 11.26538 0.18 4.572
7:55 am 07:55 Cloudy with Light Rain 65 18.2 63 17.3 95 95 N 13 20 29.97 1015 10 16.0934 0.19 4.826
8:15 am 08:15 Mostly Cloudy with Light Rain 64 17.9 62 16.7 93 93 N 17 28 29.97 1015 10 16.0934 N/A
8:35 am 08:35 Cloudy with Light Rain 64 17.8 62 16.6 93 93 N 13 20 30 1016 7 11.26538 0.02 0.508
8:55 am 08:55 Cloudy with Light Rain 64 17.8 62 16.6 93 93 NNE 16 26 30 1016 10 16.0934 0.02 0.508
9:15 am 09:15 Mostly Cloudy with Light Rain 64 17.8 61 16.2 90 90 N 12 19 30 1016 10 16.0934 N/A
9:35 am 09:35 Sunny with Light Rain 64 18 61 16.3 90 90 N 10 17 30 1016 10 16.0934 N/A
9:55 am 09:55 Sunny 65 18.1 61 16.3 89 89 NNE 12 19 30 1016 10 16.0934 0 0
10:15 am 10:15 Sunny 65 18.6 61 16.3 87 87 N 13 20 30.03 1017 10 16.0934 N/A
10:35 am 10:35 Sunny 67 19.3 62 16.7 85 85 N 14 22 30.03 1017 10 16.0934 N/A
10:55 am 10:55 Partly Cloudy 69 20.8 64 17.5 82 82 NNE 10 17 30 1016 10 16.0934 N/A
11:15 am 11:15 Mostly Cloudy 69 20.5 62 16.6 78 78 NNE 13 20 30 1016 10 16.0934 N/A
11:35 am 11:35 Partly Cloudy 70 21.1 62 16.8 77 77 N 10 17 30 1016 10 16.0934 N/A
11:55 am 11:55 Partly Cloudy 73 22.5 63 17.3 73 73 N 14 22 30 1016 10 16.0934 N/A
12:15 pm 12:15 Partly Cloudy 72 22.3 63 17 72 72 N 12 19 30 1016 10 16.0934 N/A
12:35 pm 12:35 Partly Cloudy 73 22.5 63 17.2 72 72 NNE 13 20 30 1016 10 16.0934 N/A
12:55 pm 12:55 Partly Cloudy 73 22.9 62 16.9 69 69 NNE 14 22 30 1016 10 16.0934 0 0
1:15 pm 13:15 Partly Cloudy 74 23.3 63 17.1 68 68 NNE 10 17 30 1016 10 16.0934 N/A
1:35 pm 13:35 Partly Cloudy 73 22.8 62 16.6 68 68 NNE 14 22 30 1016 10 16.0934 N/A
1:55 pm 13:55 Partly Cloudy 74 23.4 62 16.6 66 66 NNE 13 20 30 1016 10 16.0934 N/A
2:15 pm 14:15 Mostly Cloudy 74 23.5 62 16.9 67 67 NNE 12 19 30 1016 10 16.0934 N/A
2:35 pm 14:35 Partly Cloudy 75 24 62 16.6 63 63 NNE 7 11 30 1016 10 16.0934 N/A
2:55 pm 14:55 undefined N/A N/A N/A undefined N/A N/A N/A N/A
3:15 pm 15:15 Partly Cloudy with Thunderstorms 76 24.5 63 17.3 64 64 N 10 17 29.97 1015 10 16.0934 0.03 0.762
3:35 pm 15:35 Mostly Cloudy 75 24 62 16.6 63 63 NNE 9 15 30 1016 10 16.0934 0.03 0.762
3:55 pm 15:55 Cloudy 74 23.6 62 16.7 65 65 NNE 9 15 30 1016 10 16.0934 0.03 0.762
4:15 pm 16:15 Mostly Cloudy 75 24.1 62 16.6 63 63 NNE 7 11 30 1016 10 16.0934 N/A
4:35 pm 16:35 Cloudy 75 23.7 62 16.6 65 65 NE 10 17 30 1016 10 16.0934 N/A
4:55 pm 16:55 Cloudy 74 23.2 62 16.4 66 66 NNE 10 17 30 1016 10 16.0934 N/A
5:15 pm 17:15 Cloudy 73 23 61 16.2 66 66 NE 12 19 30 1016 10 16.0934 N/A
5:35 pm 17:35 Cloudy 73 22.7 60 15.7 65 65 NE 12 19 30 1016 10 16.0934 N/A
5:55 pm 17:55 Cloudy 73 23 61 16.2 66 66 NE 9 15 30 1016 10 16.0934 N/A
6:15 pm 18:15 Cloudy 73 23 60 15.8 64 64 ENE 10 17 30 1016 10 16.0934 N/A
6:35 pm 18:35 Cloudy 73 22.6 60 15.8 66 66 ENE 10 17 30 1016 10 16.0934 N/A
6:55 pm 18:55 Mostly Cloudy 73 22.6 61 16.1 67 67 ENE 10 17 30 1016 10 16.0934 N/A
7:15 pm 19:15 Mostly Cloudy 73 22.5 61 16 67 67 ENE 13 20 30 1016 10 16.0934 N/A
7:35 pm 19:35 Partly Cloudy 73 22.5 61 15.9 66 66 ENE 10 17 30.03 1017 10 16.0934 N/A
7:55 pm 19:55 Sunny 72 22.1 60 15.6 67 67 ENE 9 15 30.03 1017 10 16.0934 N/A
8:15 pm 20:15 Sunny 71 21.6 60 15.4 68 68 ENE 8 13 30.03 1017 10 16.0934 N/A
8:35 pm 20:35 Sunny 69 20.8 60 15.6 72 72 ENE 7 11 30.06 1018 10 16.0934 N/A
8:55 pm 20:55 Sunny 67 19.4 60 15.6 79 79 E 7 11 30.06 1018 10 16.0934 N/A
9:15 pm 21:15 Clear 66 18.7 60 15.5 82 82 E 7 11 30.09 1019 10 16.0934 N/A
9:35 pm 21:35 Clear 65 18.3 60 15.3 83 83 E 6 9 30.09 1019 10 16.0934 N/A
9:55 pm 21:55 Clear 63 17.4 59 15 86 86 E 6 9 30.12 1020 10 16.0934 N/A
10:15 pm 22:15 Clear 62 16.6 58 14.7 89 89 E 7 11 30.12 1020 10 16.0934 N/A
10:35 pm 22:35 Clear 62 16.4 58 14.5 89 89 E 7 11 30.15 1021 10 16.0934 N/A
10:55 pm 22:55 Clear 61 16 57 14.1 89 89 E 6 9 30.15 1021 10 16.0934 N/A
11:15 pm 23:15 Clear 60 15.8 56 13.5 86 86 E 7 11 30.15 1021 10 16.0934 N/A
11:35 pm 23:35 Clear 60 15.5 56 13.1 86 86 E 7 11 30.15 1021 10 16.0934 N/A
11:55 pm 23:55 Clear 60 15.6 55 12.7 83 83 E 7 11 30.15 1021 10 16.0934 N/A

Powered by AerisWeather